Preview of NWS' New Version of Forecast
This preview is not operational and should not be used for support decisions.

Regional Weather Roundup (RWR)

Issued by National Weather Service (NWS)

                            
000
ASUS44 KMEG 220300
RWRTN 
TENNESSEE HOURLY STATE WEATHER ROUNDUP
NATIONAL WEATHER SERVICE MEMPHIS TN
1000 PM CDT TUE MAY 21 2019

TNZ002-004-019-021-049-052-054-088>092-220400-
WEST TENNESSEE
  
CITY           SKY/WX    TMP DP  RH WIND       PRES   REMARKS
MEMPHIS INTL   MOCLDY    82  66  58 S15       29.77R                  
NWS MEMPHIS      N/A     81 N/A N/A MISG        N/A                   
JACKSON        FAIR      79  67  66 S7G17     29.81R                  
DYERSBURG      FAIR      81  69  67 S12       29.76R                  
$$

TNZ008-025-027-028-033-062-065-066-220400-
NORTH MIDDLE TENNESSEE
  
CITY           SKY/WX    TMP DP  RH WIND       PRES   REMARKS
NASHVILLE      FAIR      79  63  57 SE8       29.89R                  
CLARKSVILLE    FAIR      78  62  57 SE7       29.83R                  
SMYRNA         FAIR      78  66  66 CALM      29.90R                  
CROSSVILLE     FAIR      69  58  67 CALM      30.01R                  
$$

TNZ061-075-076-078-094-096-097-220400-
SOUTH MIDDLE TENNESSEE
  
CITY           SKY/WX    TMP DP  RH WIND       PRES   REMARKS
$$

TNZ017-018-042-046-047-220400-
NORTHEAST TENNESSEE
  
CITY           SKY/WX    TMP DP  RH WIND       PRES   REMARKS
TRI CITIES     FAIR      61  53  75 CALM      30.04R                  
$$

TNZ012-013-036-069-073-074-220400-
CENTRAL EAST TENNESSEE
  
CITY           SKY/WX    TMP DP  RH WIND       PRES   REMARKS
KNOXVILLE      FAIR      71  58  63 E6        29.97R                  
OAK RIDGE      FAIR      71  60  68 CALM      29.99R                  
$$

TNZ083-085-099-220400-
SOUTHEAST TENNESSEE
  
CITY           SKY/WX    TMP DP  RH WIND       PRES   REMARKS
CHATTANOOGA    FAIR      78  67  68 CALM      29.95R                  
$$

SKY/WX REPORTED AS FAIR MEANS FEW OR NO CLOUDS BELOW
12 THOUSAND FEET.